TimeEDT,TemperatureF,Dew PointF,Humidity,Sea Level PressureIn,VisibilityMPH,Wind Direction,Wind SpeedMPH,Gust SpeedMPH,PrecipitationIn,Events,Conditions,WindDirDegrees,DateUTC
12:52 AM,63.0,60.1,90,30.01,10.0,SSW,4.6,-,N/A,,Scattered Clouds,200,2013-10-01 04:52:00
1:52 AM,61.0,60.1,97,30.02,10.0,SSW,4.6,-,N/A,,Mostly Cloudy,200,2013-10-01 05:52:00
2:52 AM,61.0,60.1,97,30.02,8.0,South,5.8,-,N/A,,Partly Cloudy,190,2013-10-01 06:52:00
3:52 AM,61.0,60.1,97,30.01,8.0,SSW,3.5,-,N/A,,Partly Cloudy,210,2013-10-01 07:52:00
4:52 AM,57.0,57.0,100,30.02,5.0,South,5.8,-,N/A,,Partly Cloudy,190,2013-10-01 08:52:00
5:52 AM,60.1,59.0,96,30.04,7.0,South,6.9,-,N/A,,Clear,190,2013-10-01 09:52:00
6:52 AM,60.1,59.0,96,30.05,7.0,SSW,5.8,-,N/A,,Partly Cloudy,200,2013-10-01 10:52:00
7:52 AM,60.1,59.0,96,30.07,6.0,SSW,4.6,-,N/A,,Mostly Cloudy,210,2013-10-01 11:52:00
8:52 AM,62.1,61.0,96,30.09,6.0,Calm,Calm,-,N/A,,Mostly Cloudy,0,2013-10-01 12:52:00
9:52 AM,66.9,63.0,87,30.09,9.0,SSW,5.8,-,N/A,,Scattered Clouds,210,2013-10-01 13:52:00
10:52 AM,71.1,63.0,75,30.09,10.0,SSW,6.9,-,N/A,,Scattered Clouds,200,2013-10-01 14:52:00
11:52 AM,71.1,62.1,73,30.08,10.0,SW,8.1,-,N/A,,Mostly Cloudy,220,2013-10-01 15:52:00
12:52 PM,75.0,63.0,66,30.07,10.0,SSW,8.1,-,N/A,,Mostly Cloudy,200,2013-10-01 16:52:00
1:52 PM,75.0,63.0,66,30.06,10.0,SW,5.8,-,N/A,,Mostly Cloudy,230,2013-10-01 17:52:00
2:52 PM,75.0,63.0,66,30.04,10.0,SSW,8.1,-,N/A,,Mostly Cloudy,200,2013-10-01 18:52:00
3:52 PM,75.9,62.1,62,30.04,10.0,SSW,10.4,19.6,N/A,,Mostly Cloudy,210,2013-10-01 19:52:00
4:52 PM,75.9,63.0,64,30.03,10.0,SW,5.8,-,N/A,,Mostly Cloudy,220,2013-10-01 20:52:00
5:52 PM,75.9,62.1,62,30.02,10.0,SW,6.9,-,N/A,,Scattered Clouds,230,2013-10-01 21:52:00
6:52 PM,73.0,62.1,68,30.02,10.0,SSW,4.6,-,N/A,,Scattered Clouds,210,2013-10-01 22:52:00
7:52 PM,66.9,62.1,84,30.03,10.0,SSW,4.6,-,N/A,,Clear,210,2013-10-01 23:52:00
8:52 PM,64.9,61.0,87,30.04,9.0,SSW,4.6,-,N/A,,Clear,210,2013-10-02 00:52:00
9:52 PM,62.1,60.1,93,30.05,8.0,SSW,4.6,-,N/A,,Clear,200,2013-10-02 01:52:00
10:52 PM,61.0,60.1,97,30.05,8.0,South,5.8,-,N/A,,Clear,190,2013-10-02 02:52:00
11:52 PM,62.1,60.1,93,30.05,8.0,SSW,5.8,-,N/A,,Clear,200,2013-10-02 03:52:00